TimeCDT,TemperatureF,Dew PointF,Humidity,Sea Level PressureIn,VisibilityMPH,Wind Direction,Wind SpeedMPH,Gust SpeedMPH,PrecipitationIn,Events,Conditions,WindDirDegrees,DateUTC
12:53 AM,63.0,46.0,54,30.07,10.0,SE,4.6,-,N/A,,Clear,130,2013-07-03 05:53:00
1:53 AM,64.9,46.9,52,30.06,10.0,SSE,10.4,-,N/A,,Clear,160,2013-07-03 06:53:00
2:53 AM,63.0,48.0,58,30.05,10.0,South,10.4,-,N/A,,Clear,170,2013-07-03 07:53:00
3:53 AM,62.1,48.0,60,30.04,10.0,SSE,9.2,-,N/A,,Clear,160,2013-07-03 08:53:00
4:53 AM,57.0,46.9,69,30.04,10.0,Calm,Calm,-,N/A,,Clear,0,2013-07-03 09:53:00
5:53 AM,55.0,46.9,74,30.05,10.0,Calm,Calm,-,N/A,,Scattered Clouds,0,2013-07-03 10:53:00
6:53 AM,57.9,46.9,67,30.04,10.0,Calm,Calm,-,N/A,,Clear,0,2013-07-03 11:53:00
7:53 AM,64.9,48.9,56,30.05,7.0,Calm,Calm,-,N/A,,Clear,0,2013-07-03 12:53:00
8:53 AM,71.1,50.0,47,30.06,10.0,Calm,Calm,-,N/A,,Mostly Cloudy,0,2013-07-03 13:53:00
9:53 AM,75.9,46.9,36,30.05,10.0,SW,9.2,-,N/A,,Partly Cloudy,230,2013-07-03 14:53:00
10:53 AM,81.0,46.0,29,30.03,10.0,SW,11.5,-,N/A,,Partly Cloudy,220,2013-07-03 15:53:00
11:53 AM,82.9,41.0,23,30.02,10.0,SW,6.9,-,N/A,,Clear,230,2013-07-03 16:53:00
12:53 PM,84.9,41.0,21,30.00,10.0,Variable,4.6,-,N/A,,Partly Cloudy,0,2013-07-03 17:53:00
1:53 PM,87.1,39.9,19,29.97,10.0,Calm,Calm,-,N/A,,Scattered Clouds,0,2013-07-03 18:53:00
3:53 PM,89.1,42.1,19,29.93,10.0,South,13.8,25.3,N/A,,Clear,190,2013-07-03 20:53:00
4:53 PM,84.9,42.1,22,29.91,10.0,South,11.5,19.6,N/A,,Clear,170,2013-07-03 21:53:00
5:53 PM,88.0,42.1,20,29.89,10.0,SSW,12.7,-,N/A,,Overcast,210,2013-07-03 22:53:00
6:53 PM,86.0,43.0,22,29.88,10.0,South,11.5,-,N/A,,Clear,170,2013-07-03 23:53:00
7:53 PM,82.9,43.0,24,29.88,10.0,SSE,10.4,-,N/A,,Mostly Cloudy,150,2013-07-04 00:53:00
8:53 PM,77.0,45.0,32,29.88,10.0,SSE,9.2,-,N/A,,Clear,150,2013-07-04 01:53:00
9:53 PM,75.0,45.0,34,29.90,10.0,SE,6.9,-,N/A,,Mostly Cloudy,140,2013-07-04 02:53:00
10:53 PM,71.1,46.0,41,29.92,10.0,SE,10.4,-,N/A,,Clear,140,2013-07-04 03:53:00
11:53 PM,73.0,48.0,41,29.93,10.0,SE,13.8,-,N/A,,Clear,140,2013-07-04 04:53:00